Location: G�ndlingen
(48.0142°N, 7.6396°E)
Time: 19:05:25
(UTC+00:00)

Genesis I - Pass Details

Date: 05 July 2020
Orbit: 510 x 513 km, 64.5° (Epoch: 12 August)

Event Time Altitude Azimuth Distance (km) Brightness Sun altitude
Exits shadow 22:18:45 41° 171° (S) 747 3.5 -17.3°
Maximum altitude 22:19:41 53° 123° (ESE) 632 3.3 -17.4°
Drops below altitude 10° 22:23:28 10° 47° (NE) 1,737 6.2 -17.6°
Sets 22:25:40 0° 42° (NE) 2,627 7.2 -17.7°
